Home > Weather > Kingston > Past weeks

Flag for Canada Past Weather in Kingston, Ontario, Canada — Yesterday and Last 2 Weeks

Now
73 °F

Cloudy.


Feels Like: 70 °F
Forecast: 69 / 83 °F
Wind: 14 mph from South

Location: Kingston

Current Time: Jul 25, 2016 at 1:54:34 PM

Latest Report: Jul 25, 2016 at 1:00 PM


Visibility: 10 mi

Pressure: 29.80 "Hg

Humidity: 94%

Dew Point: 72 °F

Location of KingstonLocation

Past Weather in Kingston — Graph

°F

Kingston Temperature Yesterday

Maximum temperature yesterday: 79 °F (at 2:00 PM)
Minimum temperature yesterday: 59 °F (at 6:00 AM)
Average temperature yesterday: 74 °F

High & Low Weather Summary for the Past Weeks

 TemperatureHumidityPressure
High91 °F (Jul 23, 2:00 PM)94% (Jul 11, 6:00 AM)30.25 "Hg (Jul 11, 6:00 AM)
Low52 °F (Jul 20, 6:00 AM)32% (Jul 23, 2:00 PM)29.69 "Hg (Jul 14, 6:00 PM)
Average74 °F66%29.97 "Hg
* Reported Jul 10 12:00 PM — Jul 25 12:00 PM, Kingston, Weather by CustomWeather, © 2016

Note: Actual official high and low records may vary slightly from our data, if they occured in-between our weather recording intervals... More about our weather records

Advertising

Kingston Weather History for the Previous 24 Hours

Scroll right to see more
 ConditionsComfort  
Time TempWeatherWind HumidityBarometerVisibility
12:00 PM
Mon, Jul 25
75 °FCloudy.13 mph83%29.85 "Hg15 mi
11:53 AM73 °FCloudy.12 mph89%29.84 "Hg15 mi
11:00 AM73 °FMostly cloudy.15 mph89%29.83 "Hg12 mi
10:00 AM73 °FMostly cloudy.13 mph89%29.86 "Hg11 mi
9:00 AM72 °FSprinkles. More clouds than sun.14 mph94%29.83 "Hg10 mi
8:00 AM73 °FSprinkles. Cloudy.8 mph89%29.85 "Hg11 mi
7:00 AM73 °FSprinkles. Mostly cloudy.13 mph89%29.85 "Hg10 mi
6:00 AM73 °FMostly cloudy.8 mph83%29.86 "Hg15 mi
11:00 PM
Sun, Jul 24
72 °FPassing clouds.6 mph73%29.93 "Hg15 mi
10:00 PM75 °FPassing clouds.3 mph57%29.95 "Hg15 mi
9:00 PM75 °FPartly sunny.2 mph61%29.94 "Hg15 mi
8:00 PM77 °FPartly sunny.2 mph54%29.94 "Hg15 mi
7:00 PM75 °FPartly sunny.3 mph65%29.96 "Hg15 mi
6:00 PM77 °FPartly sunny.8 mph65%29.96 "Hg15 mi
5:00 PM75 °FBroken clouds.9 mph65%29.97 "Hg15 mi
4:00 PM77 °FPartly sunny.13 mph61%29.97 "Hg15 mi
3:00 PM77 °FScattered clouds.12 mph57%29.98 "Hg15 mi
2:00 PM79 °FPartly sunny.9 mph51%29.99 "Hg15 mi
1:00 PM77 °FPartly sunny.10 mph51%30.01 "Hg15 mi
Weather by CustomWeather, © 2016

See weather overviewHow to use our weather pages